User: anonymous   Login
Location: Champignolles
(47.0543°N, 4.5663°E)
Time: 19:33:03
(UTC+00:00)
Language:

USA 238 DEB - Orbit

View from above orbital plane
View from above orbital plane
View from above satellite
View from above satellite

Ground track
Ground track

The orbit data is extracted from the following two-line orbital elements,

1 38773U 12048P   21059.15952177 0.00000010  00000-0  16925-4 0    08
2 38773  63.4444 100.2500 0152094 359.6367   0.3633 13.40795061    04
Epoch (UTC): 28 February 2021 03:49:42
Eccentricity: 0.0152094
inclination: 63.4444°
perigee height: 992 km
apogee height: 1220 km
right ascension of ascending node: 100.2500°
argument of perigee: 359.6367°
revolutions per day: 13.40795061
mean anomaly at epoch: 0.3633°
orbit number at epoch: 0

The dashed part of the orbit path shows where the satellite is in the earth's shadow,  

DLR